Back to catalog

FENGYUN 1C DEB

AliveSSO
NORAD 32111·DEBRIS·🇨🇳 China

Launched May 10, 1999 from Taiyuan Satellite Launch Center

Loading…

Next Passes (next 24 hours)

TLE

FreshSource: Space-Track

Epoch: Sep 13, 2026, 05:53 UTC

1 32111U 99025CRD 26256.24534903  .00000301  00000-0  11849-3 0  9994
2 32111  98.4545 253.7671 0120807 112.6103 312.7025 14.31859314999598

Track FENGYUN 1C DEB in real time with AllMySat

Download on the App Store